Location: Warwick
(41.7000°N, 71.4170°W)
Time: 05:08:52
(UTC-04:00)

Tiangong 2 - Visible Passes

Search period start: 19 October 2017 00:00
Search period end: 29 October 2017 00:00
Orbit: 388 x 392 km, 42.8° (Epoch: 18 October)

Date Brightness Start Highest point End Pass type
(mag) Time Alt. Az. Time Alt. Az. Time Alt. Az.
19 Oct 2.8 05:00:31 31° ESE 05:00:31 31° ESE 05:02:20 10° ESE visible
20 Oct 2.3 05:37:59 27° SSW 05:37:59 27° SSW 05:40:44 10° SSE visible
21 Oct 4.3 04:43:11 10° SE 04:43:11 10° SE 04:43:15 10° SE visible
22 Oct 3.9 05:20:50 10° S 05:20:50 10° S 05:20:52 10° S visible
